FW4841 Weather Reports


time (UTC)temp
F
wind
direction
speed
knots
gust
knots
rain 1hr
in
rain 24hr
in
rain mn
in
humidity
%
barometer
mb
20260510220039 83 288 3.5 6.1 0.00 0.00 0.00 82 1015.8
20260510214538 84 306 2.6 7.0 0.00 0.00 0.00 81 1015.9
20260510213035 84 291 3.5 7.0 0.00 0.00 0.00 80 1015.8
20260510211541 84 306 3.5 8.7 0.00 0.00 0.00 81 1016.0
20260510210037 84 285 3.5 7.0 0.00 0.00 0.00 80 1016.0
20260510204540 85 280 4.3 7.8 0.00 0.00 0.00 80 1015.8
20260510203035 85 319 4.3 10.4 0.00 0.00 0.00 78 1015.9
20260510201538 85 262 5.2 7.8 0.00 0.00 0.00 74 1015.8
20260510200106 85 285 6.1 9.6 0.00 0.00 0.00 74 1015.7
20260510194550 86 306 5.2 11.3 0.00 0.00 0.00 72 1015.8
20260510193043 87 257 4.3 10.4 0.00 0.00 0.00 70 1015.9
20260510191545 87 250 4.3 9.6 0.00 0.00 0.00 67 1015.8
20260510190036 87 0.0 0.0 0.00 0.00 0.00 68 1016.0
20260510184534 87 276 6.1 8.7 0.00 0.00 0.00 66 1016.2
20260510183044 87 292 5.2 9.6 0.00 0.00 0.00 66 1016.1
20260510181536 87 256 1.7 7.0 0.00 0.00 0.00 71 1016.3
20260510180035 87 228 2.6 6.1 0.00 0.00 0.00 73 1016.4
20260510174539 87 200 2.6 7.0 0.00 0.00 0.00 72 1016.5
20260510173047 87 0.0 0.0 0.00 0.00 0.00 72 1016.6
20260510171542 87 0.0 0.0 0.00 0.00 0.00 72 1016.6
20260510170035 87 0.0 0.0 0.00 0.00 0.00 75 1016.8
20260510164544 87 0.0 0.0 0.00 0.00 0.00 75 1017.0
20260510163042 86 100 2.6 6.1 0.00 0.00 0.00 76 1016.8
20260510161534 86 207 2.6 7.0 0.00 0.00 0.00 76 1017.1
20260510160046 85 141 1.7 7.8 0.00 0.00 0.00 79 1017.2
20260510154542 85 186 1.7 7.0 0.00 0.00 0.00 78 1017.2
20260510153040 84 210 2.6 6.1 0.00 0.00 0.00 81 1017.2
20260510151541 84 228 2.6 7.0 0.00 0.00 0.00 81 1017.0
20260510150038 83 203 1.7 5.2 0.00 0.00 0.00 82 1017.1
20260510144539 83 174 1.7 6.1 0.00 0.00 0.00 82 1017.1
20260510143038 82 210 1.7 4.3 0.00 0.00 0.00 84 1017.1
20260510141538 82 224 0.9 3.5 0.00 0.00 0.00 85 1017.1
20260510140034 81 196 1.7 4.3 0.00 0.00 0.00 85 1017.0
20260510134537 80 182 1.7 3.5 0.00 0.00 0.00 86 1016.6
20260510133044 79 135 0.9 3.5 0.00 0.00 0.00 86 1016.6
20260510131537 79 0 0.0 2.6 0.00 0.00 0.00 87 1016.6
20260510130036 78 285 0.0 0.9 0.00 0.00 0.00 88 1016.6
20260510124540 76 0 0.0 0.9 0.00 0.00 0.00 91 1016.4
20260510123045 76 0 0.0 0.9 0.00 0.00 0.00 92 1016.3
20260510121536 75 297 0.0 0.9 0.00 0.00 0.00 92 1016.2
20260510120037 75 0 0.0 0.0 0.00 0.00 0.00 94 1016.2
20260510114537 75 0 0.0 0.0 0.00 0.00 0.00 94 1015.9
20260510113043 74 0 0.0 0.0 0.00 0.00 0.00 94 1015.8
20260510111536 74 0 0.0 0.0 0.00 0.00 0.00 94 1015.4
20260510110038 74 0 0.0 0.0 0.00 0.00 0.00 94 1015.5
20260510104535 74 0 0.0 0.0 0.00 0.00 0.00 93 1015.1
20260510103036 74 0 0.0 0.0 0.00 0.00 0.00 93 1014.8
20260510101536 74 0 0.0 0.0 0.00 0.00 0.00 93 1014.3
20260510100036 74 0 0.0 0.0 0.00 0.00 0.00 93 1014.2
20260510094536 74 0 0.0 0.0 0.00 0.00 0.00 93 1014.2
20260510093035 74 0 0.0 0.0 0.00 0.00 0.00 93 1013.9
20260510091536 74 293 0.0 0.0 0.00 0.00 0.00 93 1013.8
20260510090037 74 0 0.0 0.0 0.00 0.00 0.00 94 1013.6
20260510084535 74 0 0.0 0.0 0.00 0.00 0.00 93 1013.4
20260510083037 74 0 0.0 0.0 0.00 0.00 0.00 93 1013.5
20260510081543 74 295 0.0 0.9 0.00 0.00 0.00 93 1013.4
20260510080037 75 0 0.0 0.0 0.00 0.00 0.00 93 1013.9
20260510074540 75 0 0.0 0.0 0.00 0.00 0.00 93 1013.7
20260510073042 75 0 0.0 0.0 0.00 0.00 0.00 93 1013.5
20260510071539 76 0 0.0 0.0 0.00 0.00 0.00 94 1013.8
20260510070040 76 0 0.0 0.0 0.00 0.00 0.00 94 1014.0
20260510064547 76 0 0.0 0.0 0.00 0.00 0.00 94 1014.2
20260510063040 76 0 0.0 0.0 0.00 0.00 0.00 94 1014.1
20260510061535 77 0 0.0 0.0 0.00 0.00 0.00 94 1014.5
20260510060037 77 0 0.0 0.0 0.00 0.00 0.00 95 1014.6
20260510054537 77 0 0.0 0.0 0.00 0.00 0.00 95 1014.8
20260510053038 77 0 0.0 0.0 0.00 0.00 0.00 95 1015.0
20260510051538 77 0 0.0 0.0 0.00 0.00 0.00 95 1015.0
20260510050037 77 0 0.0 0.0 0.00 0.00 0.00 95 1015.2
20260510044545 78 0 0.0 0.0 0.00 0.00 0.00 95 1015.3
20260510043036 77 0 0.0 0.0 0.00 0.00 0.00 95 1015.3
20260510041535 77 0 0.0 0.0 0.00 0.00 0.00 95 1015.5
20260510040036 77 0 0.0 0.0 0.00 0.00 0.00 95 1015.3
20260510034541 77 0 0.0 0.0 0.00 0.00 0.00 95 1015.3
20260510033039 77 0 0.0 0.0 0.00 0.00 0.00 95 1015.0
20260510031541 77 0 0.0 0.0 0.00 0.00 0.00 94 1015.1
20260510030035 77 0 0.0 0.0 0.00 0.00 0.00 94 1015.0
20260510024541 77 0 0.0 0.9 0.00 0.00 0.00 93 1015.0
20260510023035 78 0 0.0 0.9 0.00 0.00 0.00 92 1014.9
20260510021538 79 294 0.0 0.9 0.00 0.00 0.00 90 1014.6
20260510020036 79 0 0.0 0.9 0.00 0.00 0.00 89 1014.7
20260510014541 80 293 0.0 2.6 0.00 0.00 0.00 88 1014.7
20260510013037 80 282 1.7 2.6 0.00 0.00 0.00 88 1014.6
20260510011535 80 283 0.0 1.7 0.00 0.00 0.00 88 1014.2
20260510010036 80 293 0.9 2.6 0.00 0.00 0.00 87 1013.8
20260510004535 81 297 1.7 3.5 0.00 0.00 0.00 86 1014.0
20260510003036 81 291 1.7 3.5 0.00 0.00 0.00 85 1013.7
20260510001536 81 297 0.9 3.5 0.00 0.00 0.00 85 1013.6
20260510000036 81 283 1.7 5.2 0.00 0.00 0.00 83 1013.3
20260509234536 82 267 2.6 6.1 0.00 0.00 0.00 83 1013.1
20260509233043 82 271 3.5 6.1 0.00 0.00 0.00 81 1013.1
20260509231536 83 226 3.5 7.0 0.00 0.00 0.00 78 1012.8
20260509230036 84 293 3.5 6.1 0.00 0.00 0.00 72 1013.0
20260509224549 84 248 2.6 6.1 0.00 0.00 0.00 71 1012.8
20260509223037 85 272 3.5 7.8 0.00 0.00 0.00 69 1012.7
20260509221539 85 284 6.1 8.7 0.00 0.00 0.00 63 1012.4